Home   Weather   Loures   Past weeks

Flag for Portugal Past Weather in Loures, Portugal — Yesterday and Last 2 Weeks

Now
52 °F

Clear.


Feels Like: 50 °F
Forecast: N/A
Wind: 6 mph from North

Location: Lisbon Portela Airport

Current Time: Jan 17, 2017 at 11:58:17 pm

Latest Report: Jan 17, 2017 at 11:30 pm


Visibility: 10 mi

Pressure: 30.09 "Hg

Humidity: 72%

Dew Point: 43 °F

Location of LouresLocation

Past Weather in Loures — Graph

°F

Loures Temperature Yesterday

Maximum temperature yesterday: 63 °F (at 4:30 pm)
Minimum temperature yesterday: 37 °F (at 7:30 am)
Average temperature yesterday: 49 °F

High & Low Weather Summary for the Past Weeks

 TemperatureHumidityPressure
High64 °F (Jan 3, 1:00 pm)100% (Jan 2, 11:00 pm)30.48 "Hg (Jan 2, 11:00 pm)
Low37 °F (Jan 9, 8:00 am)39% (Jan 15, 4:00 pm)29.98 "Hg (Jan 2, 11:00 pm)
Average52 °F81%30.30 "Hg
* Reported Jan 2 11:00 pm — Jan 17 11:00 pm, Loures, Weather by CustomWeather, © 2017

Note: Actual official high and low records may vary slightly from our data, if they occured in-between our weather recording intervals... More about our weather records

Advertising

Loures Weather History for the Previous 24 Hours

Scroll right to see more
 ConditionsComfort  
Time TempWeatherWind HumidityBarometerVisibility
11:00 pm
Tue, Jan 17
52 °FPassing clouds.8 mph77%30.09 "HgN/A
10:30 pm54 °FClear.10 mph77%30.09 "Hg10 mi
10:00 pm54 °FClear.10 mph77%30.09 "Hg10 mi
9:30 pm54 °FClear.10 mph72%30.09 "Hg10 mi
9:00 pm54 °FClear.13 mph77%30.09 "Hg10 mi
8:30 pm54 °FClear.13 mph77%30.09 "Hg10 mi
8:00 pm54 °FClear.10 mph77%30.09 "Hg10 mi
7:30 pm54 °FClear.13 mph77%30.09 "Hg10 mi
7:00 pm54 °FClear.12 mph67%30.09 "Hg10 mi
6:30 pm54 °FClear.7 mph67%30.09 "Hg10 mi
6:00 pm55 °FClear.8 mph67%30.09 "Hg10 mi
5:30 pm57 °FPassing clouds.8 mph63%30.09 "HgN/A
5:00 pm59 °FPassing clouds.9 mph59%30.09 "HgN/A
4:30 pm61 °FSunny.10 mph55%30.09 "Hg10 mi
4:00 pm61 °FSunny.12 mph55%30.09 "Hg10 mi
3:30 pm63 °FSunny.8 mph42%30.12 "Hg10 mi
3:00 pm63 °FPassing clouds.5 mph39%30.12 "HgN/A
2:30 pm61 °FPassing clouds.5 mph55%30.12 "HgN/A
2:00 pm63 °FSunny.5 mph42%30.12 "Hg10 mi
1:30 pm61 °FSunny.2 mph59%30.15 "Hg10 mi
1:00 pm57 °FSunny.6 mph67%30.15 "Hg10 mi
12:30 pm61 °FPassing clouds.5 mph59%30.18 "HgN/A
12:00 pm61 °FSunny.2 mph48%30.18 "Hg10 mi
11:30 am57 °FSunny.1 mph63%30.18 "Hg10 mi
11:00 am52 °FPassing clouds.3 mph77%30.21 "HgN/A
10:30 am54 °FSunny.3 mph67%30.21 "Hg10 mi
10:00 am48 °FSunny.2 mph76%30.21 "Hg10 mi
9:30 am46 °FFog.5 mph82%30.21 "HgN/A
9:00 am45 °FFog.No wind87%30.21 "HgN/A
8:30 am41 °FSleet. Fog.No wind93%30.18 "HgN/A
8:00 am41 °FSleet. Fog.No wind93%30.18 "HgN/A
7:30 am39 °FFog.3 mph93%30.18 "HgN/A
7:00 am43 °FFog.2 mph87%30.18 "HgN/A
6:30 am39 °FSleet. Fog.1 mph93%30.18 "HgN/A
6:00 am41 °FSleet. Fog.3 mph93%30.18 "HgN/A
5:30 am43 °FSleet. Fog.2 mph87%30.18 "HgN/A
5:00 am43 °FClear.5 mph87%30.21 "Hg10 mi
4:30 am45 °FClear.2 mph87%30.18 "Hg10 mi
4:00 am41 °FClear.No wind93%30.21 "Hg10 mi
3:30 am41 °FClear.No wind93%30.21 "Hg10 mi
3:00 am45 °FPassing clouds.6 mph87%30.21 "HgN/A
2:30 am48 °FClear.8 mph76%30.21 "Hg10 mi
2:00 am48 °FClear.7 mph82%30.21 "Hg10 mi
1:30 am48 °FClear.6 mph82%30.21 "Hg10 mi
1:00 am50 °FClear.6 mph76%30.24 "Hg10 mi
12:30 am46 °FPassing clouds.3 mph87%30.24 "HgN/A
12:00 am46 °FClear.7 mph82%30.24 "Hg10 mi
11:30 pm
Mon, Jan 16
46 °FPassing clouds.3 mph76%30.24 "HgN/A
11:00 pm50 °FClear.9 mph71%30.24 "Hg10 mi
Weather by CustomWeather, © 2017

See weather overviewHow to use our weather pages